SCP
0 0 0 0 0 0 0 0 0 0 0 0 0 0 0 0 0 0 0 0 0 0 0 0 0 0 0 0 0 0 0 0 0 0 0 0 0 0 0 0 0 0 0 0
0 0 0 0 0 0 0 0 0 0 0 0 0 0 0 0 0 0 0 0 0 0 0 0 0 0 0 0 0 0 0 0 0 0 0 0 0 0 0 0 0 0 0 0
0 0 0 0 0 0 0 0 0 0 0 0 0 0 0 0 0 0 0 0 0 0 0 0 0 0 0 0 0 0 0 0 0 0 0 0 0 0 0 0 0 0 0 0
0 0 0 0 0 0 0 0 0 0 0 0 0 0 0 0 0 0 0 0 0 0 0 0 0 0 0 0 0 0 0 0 0 0 0 -0 0 0 0 0 0 0 0 0
0 0 0 0 0 0 0 0 0 0 0 0 0 0 0 0 0 0 0 0 0 0 0 0 0 0 0 0 0 0 0 0 0 0 0 -0 -0 0 0 0 0 0 0 0
0 0 0 0 0 0 0 0 0 0 0 0 0 0 0 0 0 0 0 0 0 0 0 0 0 0 0 0 0 0 0 0 0 0 0 0 0 0 0 0 0 0 0 0
0 0 0 0 0 0 0 0 0 0 0 0 0 0 0 0 0 0 0 0 0 0 0 0 0 0 -0 -0 -0 0 0 0 0 0 0 0 0 0 0 0 0 0 0 0
0 0 0 0 0 0 0 0 0 0 0 0 0 0 0 0 0 0 0 0 0 0 0 0 0 0 0 0 0 -0 0 0 0 0 0 0 0 0 0 0 0 0 0 0
0 0 0 0 0 0 0 0 0 0 0 0 0 0 0 0 0 0 0 0 0 0 0 0 0 0 0 0 0 0 0 0 0 0 0 0 0 0 0 0 0 0 0 0
0 0 0 0 0 0 0 0 0 0 0 0 0 0 0 0 0 0 0 0 0 0 0 0 0 0 0 0 0 0 0 0 0 0 0 0 0 0 0 0 0 0 0 0
0 0 0 0 0 0 0 0 0 0 0 0 0 0 0 0 0 0 0 0 0 0 0 0 0 0 0 0 0 0 0 0 0 0 0 0 0 0 0 0 0 0 0 0
0 0 0 0 0 0 0 0 0 0 0 0 0 0 0 0 0 0 0 0 0 0 0 0 0 0 0 0 0 0 0 0 0 0 0 0 0 0 0 0 0 0 0 0
0 0 0 0 0 0 0 0 0 0 0 0 0 0 0 0 0 0 0 0 0 0 0 0 0 0 0 0 0 0 0 0 0 0 0 0 0 0 0 0 0 0 0 0
0 0 0 0 0 0 0 0 0 0 0 0 0 0 0 0 0 0 0 0 0 0 0 0 0 0 0 0 0 0 0 0 0 0 0 0 0 0 0 0 0 0 0 0
0 0 0 0 0 0 0 0 0 0 0 0 0 0 0 0 0 0 0 0 0 0 0 0 0 0 0 0 0 0 0 0 0 0 0 0 0 0 0 0 0 0 0 0
0 0 0 0 0 0 0 0 0 0 0 0 0 0 0 0 0 0 0 0 0 0 0 0 0 0 0 0 0 0 0 0 0 0 0 0 0 0 0 0 0 0 0 0
0 0 0 0 0 0 0 0 0 0 0 0 0 0 0 0 0 0 0 0 0 0 0 0 0 0 0 0 0 0 0 0 0 -0 -0 0 0 0 0 0 0 0 0 0
0 0 0 0 0 0 0 0 0 0 0 0 0 0 0 0 0 0 0 0 0 0 0 0 0 0 0 0 0 -0 0 -0 -0 0 0 0 0 0 0 0 0 0 0 0
0 0 0 0 0 0 0 0 0 0 0 0 0 0 0 0 0 0 0 0 0 0 0 0 0 0 0 0 -0 -0 -0 0 -0 0 0 0 0 0 0 0 0 0 0 0
0 0 0 0 0 0 0 0 0 0 0 0 0 0 0 0 0 0 0 0 0 0 0 0 0 0 0 0 -0 -0 -0 -0 -0 -0 0 0 0 0 0 0 0 0 0 0
0 0 0 0 0 0 0 0 0 0 0 0 0 0 0 0 0 0 0 0 0 0 0 0 0 0 0 0 -0 -0 0 -0 0 0 0 0 0 0 0 0 0 0 0 0
0 0 0 0 0 0 0 0 0 0 0 0 0 0 0 0 0 0 0 0 0 0 0 0 0 0 0 0 -0 -0 -0 -0 0 0 0 0 0 0 0 0 0 0 0 0
0 0 0 0 0 0 0 0 0 0 0 0 0 0 0 0 0 0 0 0 0 0 0 0 0 0 0 0 0 0 0 -0 -0 0 0 0 0 0 0 0 0 0 0 0
0 0 0 0 0 0 0 0 0 0 0 0 0 0 0 0 0 0 0 0 0 0 0 0 0 0 0 0 0 0 0 0 0 0 0 0 0 0 0 0 0 0 0 0
0 0 0 0 0 0 0 0 0 0 0 0 0 0 0 0 0 0 0 0 0 0 0 0 0 0 0 0 0 0 0 0 0 0 0 0 0 0 0 0 0 0 0 0
0 0 0 0 0 0 0 0 0 0 0 0 0 0 0 0 0 0 0 0 0 0 0 0 0 0 0 0 0 0 0 0 0 0 0 0 0 0 0 0 0 0 0 0
0 0 0 0 0 0 0 0 0 0 0 0 0 0 0 0 0 0 0 0 0 0 0 0 0 0 0 0 0 0 0 0 0 0 0 0 0 0 0 0 0 0 0 0
Wind_Speed_500mb
47 40 34 30 24 20 20 14 7 6 4 5 3 5 7 10 11 2 4 5 6 7 7 8 6 7 5 14 2 6 5 4 6 9 3 2 14 8 5 6 1 2 5 3
48 43 36 32 25 17 14 10 11 4 3 3 3 8 6 8 6 5 5 3 2 4 8 11 6 5 5 12 8 5 4 6 9 10 8 5 11 9 5 5 1 3 7 6
48 45 39 34 27 17 9 9 4 3 4 2 4 7 6 8 10 7 2 6 7 7 8 9 11 10 10 10 13 14 10 7 6 6 8 4 9 19 8 5 4 5 5 5
52 47 42 37 31 20 10 6 3 2 0 3 4 2 4 6 6 5 6 6 6 9 10 11 10 8 7 13 8 9 6 8 12 21 22 27 22 25 27 17 5 9 8 3
53 53 47 40 36 25 18 5 3 4 5 6 4 5 4 5 5 8 4 12 7 6 10 5 14 14 3 4 10 7 6 9 12 12 16 25 32 20 13 13 10 12 4 2
58 57 51 46 41 31 17 14 9 4 3 2 5 5 5 5 10 8 9 14 16 22 9 26 30 32 26 12 5 6 5 12 6 9 6 2 8 15 14 4 4 6 10 9
53 60 57 50 44 37 25 13 9 3 3 5 5 2 4 8 9 1 8 12 12 22 65 59 44 45 42 41 28 8 11 8 4 6 10 5 7 6 4 6 3 6 7 11
61 57 59 55 48 42 35 16 10 4 5 5 8 4 4 10 3 8 11 15 48 30 28 12 9 6 6 13 18 23 9 8 7 5 5 7 4 2 4 9 7 10 10 17
65 71 63 60 52 45 38 32 13 7 5 1 9 5 3 2 4 5 10 22 32 4 8 6 5 4 4 4 6 7 14 14 4 5 5 4 6 1 13 5 5 12 14 19
68 74 68 65 57 48 41 34 24 8 6 4 6 4 2 0 5 6 6 7 5 8 5 5 3 5 2 5 5 5 5 6 10 5 6 6 3 16 11 6 8 8 12 17
56 75 74 68 59 51 45 39 27 16 7 5 2 6 1 2 3 5 13 9 4 5 6 4 4 4 5 5 4 3 3 2 4 4 4 6 14 6 4 7 6 9 12 17
49 74 77 70 62 53 47 39 31 18 12 7 2 5 7 7 3 12 9 9 7 6 8 3 6 5 5 3 6 3 2 5 4 5 6 6 11 18 14 11 11 10 13 19
38 71 79 72 61 57 51 44 34 17 7 5 4 1 6 7 7 15 7 6 9 10 11 11 5 8 3 6 6 7 5 3 6 8 6 13 12 13 14 13 13 11 17 21
35 68 76 70 63 59 53 45 36 21 5 3 3 5 10 8 14 18 13 22 28 27 16 9 5 6 3 4 7 3 3 13 12 6 9 12 7 11 12 10 10 15 20 18
38 62 73 67 64 59 52 44 35 29 7 2 9 14 18 22 20 22 32 33 32 16 9 8 6 7 7 5 3 5 9 9 4 4 23 9 15 18 11 6 12 19 17 15
36 60 72 70 66 62 52 17 35 30 13 3 5 7 8 21 31 30 28 25 20 14 11 10 8 6 2 5 4 4 8 15 11 12 29 15 28 21 10 6 11 14 13 16
30 63 75 72 67 66 42 13 23 36 14 3 7 2 5 12 19 33 30 25 18 13 10 8 7 4 3 4 5 21 21 19 29 35 31 23 22 11 8 6 9 11 13 16
25 75 71 67 64 62 22 17 37 34 10 3 4 1 5 5 7 9 11 10 10 14 7 7 5 6 2 3 12 27 28 37 39 32 11 13 20 16 7 5 8 10 15 15
44 84 75 66 55 41 25 21 39 25 5 5 2 7 5 5 9 9 8 7 6 5 4 5 2 2 6 9 40 40 47 30 36 22 21 24 18 13 6 6 8 12 15 16
95 98 51 25 48 47 40 21 11 8 8 6 3 9 5 8 5 7 4 8 4 3 4 4 1 4 6 13 35 47 46 28 37 32 21 20 16 11 7 8 10 14 16 15
91 30 16 62 67 54 10 12 10 9 7 13 9 10 7 7 6 7 4 5 2 4 4 3 1 5 7 21 41 48 38 34 31 12 14 14 9 9 9 8 12 17 17 15
39 36 77 76 28 10 10 7 9 10 13 19 23 18 9 12 10 9 4 5 3 4 6 3 4 3 11 29 50 54 38 38 22 16 14 11 7 6 7 9 17 19 20 18
79 54 26 21 9 7 20 22 9 10 23 22 22 16 12 10 8 11 5 5 4 10 5 5 4 9 21 38 53 50 44 32 22 19 11 7 6 5 8 15 18 17 20 17
11 10 15 11 12 12 8 13 13 12 29 57 46 18 7 8 6 6 7 4 7 4 5 7 4 22 35 48 54 54 44 32 22 14 10 7 7 11 15 17 16 15 14 15
9 11 11 10 12 11 25 38 40 40 71 70 34 19 10 5 7 3 8 8 7 8 7 3 11 37 52 57 56 49 40 30 19 12 9 7 9 13 17 16 15 14 14 16
8 6 8 10 22 14 21 37 39 63 72 61 22 9 6 4 9 9 9 16 10 5 6 11 33 52 59 60 52 42 32 22 14 11 8 8 13 16 17 17 15 14 15 17
6 5 9 10 24 43 41 51 64 87 75 17 11 10 6 10 6 8 7 9 4 9 14 19 44 63 65 58 48 38 26 17 13 9 8 11 16 19 19 17 16 15 18 19
Wind_Direction_500mb
229 227 230 235 246 271 300 307 278 311 248 252 99 226 195 317 282 306 267 130 110 132 118 86 101 113 351 338 322 61 41 82 80 95 59 9 61 51 37 299 211 74 318 94
222 223 224 230 237 255 289 283 273 266 216 252 257 274 320 261 292 315 0 124 78 73 122 108 108 110 47 38 61 77 149 39 130 148 154 86 48 22 58 104 284 112 302 74
216 217 218 223 229 235 259 293 288 265 200 184 272 25 298 296 277 257 280 104 113 111 68 34 134 122 53 49 79 89 96 69 31 162 70 56 59 16 9 355 360 109 34 128
212 213 212 216 222 218 214 256 272 310 203 247 276 325 297 290 313 332 7 76 84 125 109 104 104 108 120 57 53 51 67 84 90 80 88 87 80 55 49 67 30 18 97 77
206 209 209 212 215 210 210 244 269 284 275 282 257 168 235 270 334 337 355 109 80 89 134 178 156 140 113 111 67 66 21 125 122 66 102 95 75 53 54 53 55 88 82 45
199 205 206 205 209 205 201 223 254 289 292 257 202 209 261 296 335 59 40 120 102 66 58 101 97 93 83 85 101 103 70 145 151 131 188 299 68 26 43 48 40 2 4 18
192 200 205 206 207 206 201 209 209 226 242 245 225 307 299 293 306 176 46 66 96 124 108 94 85 79 77 65 52 65 117 99 50 100 141 199 76 40 35 10 76 43 22 0
198 199 205 205 204 206 205 204 210 239 275 300 271 289 283 284 78 66 62 61 125 127 113 89 78 20 63 52 49 48 68 125 101 142 80 110 193 207 333 328 64 30 354 348
198 202 204 205 203 205 206 209 220 250 271 251 303 291 289 210 110 69 70 104 143 110 76 85 110 138 120 106 105 86 68 72 98 130 130 101 103 126 326 205 150 20 2 353
198 198 202 204 203 203 202 209 217 238 263 306 329 272 248 333 81 100 109 119 120 64 78 82 108 107 320 113 102 39 46 37 71 99 102 111 21 318 310 295 29 29 16 17
199 198 199 200 200 199 197 204 212 215 262 296 355 33 20 155 104 150 152 122 63 83 84 125 137 125 98 107 64 46 43 79 75 120 109 122 0 310 341 86 86 45 35 19
194 198 197 198 196 196 195 201 207 218 254 264 304 92 76 56 136 130 134 127 118 139 102 134 136 131 140 125 122 81 124 16 86 4 74 100 55 90 104 101 86 46 25 7
191 190 194 194 192 193 193 195 202 208 262 255 194 193 24 14 199 170 136 130 125 120 117 134 113 107 171 139 134 122 105 135 86 173 145 132 117 107 109 92 76 47 12 7
189 186 191 190 189 189 189 192 198 196 232 269 168 120 43 28 167 160 128 140 125 120 105 89 92 102 230 116 99 96 73 157 131 98 146 143 139 139 126 96 52 24 15 27
201 176 188 183 184 186 185 190 199 204 216 276 160 108 53 67 111 146 134 128 122 107 86 64 74 102 147 72 139 125 187 151 173 101 159 119 148 156 146 95 31 11 28 40
202 175 185 179 180 177 174 200 212 204 221 221 176 134 81 94 104 122 124 126 106 95 87 94 101 122 100 126 114 149 166 139 122 137 145 130 146 152 144 64 24 20 43 62
183 180 177 176 174 174 168 174 183 191 203 199 102 37 127 101 104 91 85 94 85 81 91 72 104 106 87 119 147 159 141 136 128 139 134 120 150 155 140 39 24 48 75 84
181 177 171 167 170 169 174 173 167 177 189 139 137 120 98 96 73 74 68 80 65 46 85 93 102 134 78 171 139 144 142 138 137 141 115 149 161 152 127 52 81 91 100 89
181 163 157 156 166 170 177 162 157 172 146 154 178 136 167 115 87 80 65 72 73 54 82 78 130 153 220 167 163 160 159 155 161 150 135 138 145 151 133 101 119 128 112 89
160 147 140 148 169 158 139 129 149 156 191 199 122 126 147 150 119 75 94 47 74 140 57 83 208 250 225 166 178 167 165 159 159 145 148 163 168 171 151 149 152 147 128 102
141 146 135 144 147 144 137 144 174 161 184 188 158 154 146 153 115 120 69 113 97 166 117 236 185 244 192 176 170 170 163 156 149 135 143 152 168 180 174 167 167 154 142 113
144 134 136 137 156 144 140 153 150 200 194 171 153 162 156 117 112 105 109 105 162 151 134 178 235 166 173 164 164 166 162 159 152 135 137 142 150 166 182 178 168 163 156 130
130 127 148 159 172 135 177 175 180 177 167 158 150 135 132 118 105 87 130 127 135 131 177 219 234 149 159 158 160 160 161 162 154 148 143 132 122 126 143 144 147 147 148 142
110 130 147 183 180 208 181 150 136 144 151 150 141 118 123 115 96 126 115 88 152 132 199 230 159 171 160 158 160 162 160 159 156 152 140 126 109 117 125 142 144 148 155 163
154 157 178 184 133 123 161 137 139 145 152 147 131 91 100 98 113 74 120 158 183 209 224 200 171 165 160 159 160 162 159 159 161 154 145 132 129 127 136 147 146 151 149 150
156 151 124 140 128 126 149 154 144 151 153 150 130 105 122 137 141 170 186 154 194 198 201 176 164 162 161 160 161 159 157 157 159 159 152 148 149 143 147 145 148 143 145 148
164 160 167 160 144 155 161 163 161 162 157 151 128 138 152 116 155 168 188 184 167 160 168 168 169 166 163 162 160 158 158 157 158 159 157 159 161 150 144 149 152 149 149 152
Wind_Speed_850mb
47 40 34 30 24 20 20 14 7 6 4 5 3 5 7 10 11 2 4 5 6 7 7 8 6 7 5 14 2 6 5 4 6 9 3 2 14 8 5 6 1 2 5 3
48 43 36 32 25 17 14 10 11 4 3 3 3 8 6 8 6 5 5 3 2 4 8 11 6 5 5 12 8 5 4 6 9 10 8 5 11 9 5 5 1 3 7 6
48 45 39 34 27 17 9 9 4 3 4 2 4 7 6 8 10 7 2 6 7 7 8 9 11 10 10 10 13 14 10 7 6 6 8 4 9 19 8 5 4 5 5 5
52 47 42 37 31 20 10 6 3 2 0 3 4 2 4 6 6 5 6 6 6 9 10 11 10 8 7 13 8 9 6 8 12 21 22 27 22 25 27 17 5 9 8 3
53 53 47 40 36 25 18 5 3 4 5 6 4 5 4 5 5 8 4 12 7 6 10 5 14 14 3 4 10 7 6 9 12 12 16 25 32 20 13 13 10 12 4 2
58 57 51 46 41 31 17 14 9 4 3 2 5 5 5 5 10 8 9 14 16 22 9 26 30 32 26 12 5 6 5 12 6 9 6 2 8 15 14 4 4 6 10 9
53 60 57 50 44 37 25 13 9 3 3 5 5 2 4 8 9 1 8 12 12 22 65 59 44 45 42 41 28 8 11 8 4 6 10 5 7 6 4 6 3 6 7 11
61 57 59 55 48 42 35 16 10 4 5 5 8 4 4 10 3 8 11 15 48 30 28 12 9 6 6 13 18 23 9 8 7 5 5 7 4 2 4 9 7 10 10 17
65 71 63 60 52 45 38 32 13 7 5 1 9 5 3 2 4 5 10 22 32 4 8 6 5 4 4 4 6 7 14 14 4 5 5 4 6 1 13 5 5 12 14 19
68 74 68 65 57 48 41 34 24 8 6 4 6 4 2 0 5 6 6 7 5 8 5 5 3 5 2 5 5 5 5 6 10 5 6 6 3 16 11 6 8 8 12 17
56 75 74 68 59 51 45 39 27 16 7 5 2 6 1 2 3 5 13 9 4 5 6 4 4 4 5 5 4 3 3 2 4 4 4 6 14 6 4 7 6 9 12 17
49 74 77 70 62 53 47 39 31 18 12 7 2 5 7 7 3 12 9 9 7 6 8 3 6 5 5 3 6 3 2 5 4 5 6 6 11 18 14 11 11 10 13 19
38 71 79 72 61 57 51 44 34 17 7 5 4 1 6 7 7 15 7 6 9 10 11 11 5 8 3 6 6 7 5 3 6 8 6 13 12 13 14 13 13 11 17 21
35 68 76 70 63 59 53 45 36 21 5 3 3 5 10 8 14 18 13 22 28 27 16 9 5 6 3 4 7 3 3 13 12 6 9 12 7 11 12 10 10 15 20 18
38 62 73 67 64 59 52 44 35 29 7 2 9 14 18 22 20 22 32 33 32 16 9 8 6 7 7 5 3 5 9 9 4 4 23 9 15 18 11 6 12 19 17 15
36 60 72 70 66 62 52 17 35 30 13 3 5 7 8 21 31 30 28 25 20 14 11 10 8 6 2 5 4 4 8 15 11 12 29 15 28 21 10 6 11 14 13 16
30 63 75 72 67 66 42 13 23 36 14 3 7 2 5 12 19 33 30 25 18 13 10 8 7 4 3 4 5 21 21 19 29 35 31 23 22 11 8 6 9 11 13 16
25 75 71 67 64 62 22 17 37 34 10 3 4 1 5 5 7 9 11 10 10 14 7 7 5 6 2 3 12 27 28 37 39 32 11 13 20 16 7 5 8 10 15 15
44 84 75 66 55 41 25 21 39 25 5 5 2 7 5 5 9 9 8 7 6 5 4 5 2 2 6 9 40 40 47 30 36 22 21 24 18 13 6 6 8 12 15 16
95 98 51 25 48 47 40 21 11 8 8 6 3 9 5 8 5 7 4 8 4 3 4 4 1 4 6 13 35 47 46 28 37 32 21 20 16 11 7 8 10 14 16 15
91 30 16 62 67 54 10 12 10 9 7 13 9 10 7 7 6 7 4 5 2 4 4 3 1 5 7 21 41 48 38 34 31 12 14 14 9 9 9 8 12 17 17 15
39 36 77 76 28 10 10 7 9 10 13 19 23 18 9 12 10 9 4 5 3 4 6 3 4 3 11 29 50 54 38 38 22 16 14 11 7 6 7 9 17 19 20 18
79 54 26 21 9 7 20 22 9 10 23 22 22 16 12 10 8 11 5 5 4 10 5 5 4 9 21 38 53 50 44 32 22 19 11 7 6 5 8 15 18 17 20 17
11 10 15 11 12 12 8 13 13 12 29 57 46 18 7 8 6 6 7 4 7 4 5 7 4 22 35 48 54 54 44 32 22 14 10 7 7 11 15 17 16 15 14 15
9 11 11 10 12 11 25 38 40 40 71 70 34 19 10 5 7 3 8 8 7 8 7 3 11 37 52 57 56 49 40 30 19 12 9 7 9 13 17 16 15 14 14 16
8 6 8 10 22 14 21 37 39 63 72 61 22 9 6 4 9 9 9 16 10 5 6 11 33 52 59 60 52 42 32 22 14 11 8 8 13 16 17 17 15 14 15 17
6 5 9 10 24 43 41 51 64 87 75 17 11 10 6 10 6 8 7 9 4 9 14 19 44 63 65 58 48 38 26 17 13 9 8 11 16 19 19 17 16 15 18 19
Wind_Direction_850mb
229 227 230 235 246 271 300 307 278 311 248 252 99 226 195 317 282 306 267 130 110 132 118 86 101 113 351 338 322 61 41 82 80 95 59 9 61 51 37 299 211 74 318 94
222 223 224 230 237 255 289 283 273 266 216 252 257 274 320 261 292 315 0 124 78 73 122 108 108 110 47 38 61 77 149 39 130 148 154 86 48 22 58 104 284 112 302 74
216 217 218 223 229 235 259 293 288 265 200 184 272 25 298 296 277 257 280 104 113 111 68 34 134 122 53 49 79 89 96 69 31 162 70 56 59 16 9 355 360 109 34 128
212 213 212 216 222 218 214 256 272 310 203 247 276 325 297 290 313 332 7 76 84 125 109 104 104 108 120 57 53 51 67 84 90 80 88 87 80 55 49 67 30 18 97 77
206 209 209 212 215 210 210 244 269 284 275 282 257 168 235 270 334 337 355 109 80 89 134 178 156 140 113 111 67 66 21 125 122 66 102 95 75 53 54 53 55 88 82 45
199 205 206 205 209 205 201 223 254 289 292 257 202 209 261 296 335 59 40 120 102 66 58 101 97 93 83 85 101 103 70 145 151 131 188 299 68 26 43 48 40 2 4 18
192 200 205 206 207 206 201 209 209 226 242 245 225 307 299 293 306 176 46 66 96 124 108 94 85 79 77 65 52 65 117 99 50 100 141 199 76 40 35 10 76 43 22 0
198 199 205 205 204 206 205 204 210 239 275 300 271 289 283 284 78 66 62 61 125 127 113 89 78 20 63 52 49 48 68 125 101 142 80 110 193 207 333 328 64 30 354 348
198 202 204 205 203 205 206 209 220 250 271 251 303 291 289 210 110 69 70 104 143 110 76 85 110 138 120 106 105 86 68 72 98 130 130 101 103 126 326 205 150 20 2 353
198 198 202 204 203 203 202 209 217 238 263 306 329 272 248 333 81 100 109 119 120 64 78 82 108 107 320 113 102 39 46 37 71 99 102 111 21 318 310 295 29 29 16 17
199 198 199 200 200 199 197 204 212 215 262 296 355 33 20 155 104 150 152 122 63 83 84 125 137 125 98 107 64 46 43 79 75 120 109 122 0 310 341 86 86 45 35 19
194 198 197 198 196 196 195 201 207 218 254 264 304 92 76 56 136 130 134 127 118 139 102 134 136 131 140 125 122 81 124 16 86 4 74 100 55 90 104 101 86 46 25 7
191 190 194 194 192 193 193 195 202 208 262 255 194 193 24 14 199 170 136 130 125 120 117 134 113 107 171 139 134 122 105 135 86 173 145 132 117 107 109 92 76 47 12 7
189 186 191 190 189 189 189 192 198 196 232 269 168 120 43 28 167 160 128 140 125 120 105 89 92 102 230 116 99 96 73 157 131 98 146 143 139 139 126 96 52 24 15 27
201 176 188 183 184 186 185 190 199 204 216 276 160 108 53 67 111 146 134 128 122 107 86 64 74 102 147 72 139 125 187 151 173 101 159 119 148 156 146 95 31 11 28 40
202 175 185 179 180 177 174 200 212 204 221 221 176 134 81 94 104 122 124 126 106 95 87 94 101 122 100 126 114 149 166 139 122 137 145 130 146 152 144 64 24 20 43 62
183 180 177 176 174 174 168 174 183 191 203 199 102 37 127 101 104 91 85 94 85 81 91 72 104 106 87 119 147 159 141 136 128 139 134 120 150 155 140 39 24 48 75 84
181 177 171 167 170 169 174 173 167 177 189 139 137 120 98 96 73 74 68 80 65 46 85 93 102 134 78 171 139 144 142 138 137 141 115 149 161 152 127 52 81 91 100 89
181 163 157 156 166 170 177 162 157 172 146 154 178 136 167 115 87 80 65 72 73 54 82 78 130 153 220 167 163 160 159 155 161 150 135 138 145 151 133 101 119 128 112 89
160 147 140 148 169 158 139 129 149 156 191 199 122 126 147 150 119 75 94 47 74 140 57 83 208 250 225 166 178 167 165 159 159 145 148 163 168 171 151 149 152 147 128 102
141 146 135 144 147 144 137 144 174 161 184 188 158 154 146 153 115 120 69 113 97 166 117 236 185 244 192 176 170 170 163 156 149 135 143 152 168 180 174 167 167 154 142 113
144 134 136 137 156 144 140 153 150 200 194 171 153 162 156 117 112 105 109 105 162 151 134 178 235 166 173 164 164 166 162 159 152 135 137 142 150 166 182 178 168 163 156 130
130 127 148 159 172 135 177 175 180 177 167 158 150 135 132 118 105 87 130 127 135 131 177 219 234 149 159 158 160 160 161 162 154 148 143 132 122 126 143 144 147 147 148 142
110 130 147 183 180 208 181 150 136 144 151 150 141 118 123 115 96 126 115 88 152 132 199 230 159 171 160 158 160 162 160 159 156 152 140 126 109 117 125 142 144 148 155 163
154 157 178 184 133 123 161 137 139 145 152 147 131 91 100 98 113 74 120 158 183 209 224 200 171 165 160 159 160 162 159 159 161 154 145 132 129 127 136 147 146 151 149 150
156 151 124 140 128 126 149 154 144 151 153 150 130 105 122 137 141 170 186 154 194 198 201 176 164 162 161 160 161 159 157 157 159 159 152 148 149 143 147 145 148 143 145 148
164 160 167 160 144 155 161 163 161 162 157 151 128 138 152 116 155 168 188 184 167 160 168 168 169 166 163 162 160 158 158 157 158 159 157 159 161 150 144 149 152 149 149 152